Location: Corralito
(10.2667°N, 66.9500°W)
Time: 03:22:08
(UTC+00:00)

Cosmos 1331 Rocket - Pass Details

Date: 07 December 2023
Orbit: 748 x 775 km, 74.0° (Epoch: 22 February)

Event Time Altitude Azimuth Distance (km) Brightness Sun altitude
Rises 23:21:16 0° 208° (SSW) 3,237 8.0 -18.1°
Reaches altitude 10° 23:23:45 10° 215° (SW) 2,313 7.3 -18.7°
Maximum altitude 23:28:39 40° 284° (WNW) 1,128 5.3 -19.8°
Drops below altitude 10° 23:33:35 10° 353° (N) 2,316 6.3 -21.0°
Enters shadow 23:35:07 - 358° (N) 2,874 6.8 -21.3°
